| time (UTC) | temp C | wind direction | speed KPH | gust KPH | rain 1hr cm | rain 24hr cm | rain mn cm | humidity % | barometer mb |
| 20260906084557 | 14 | 0.0 | 0.0 | 0.00 | 0.00 | 0.00 | 70 | 1014.7 | |
| 20260906083017 | 14 | 0.0 | 0.0 | 0.00 | 0.00 | 0.00 | 70 | 1014.9 | |
| 20260906081517 | 14 | 0.0 | 0.0 | 0.00 | 0.00 | 0.00 | 69 | 1014.9 | |
| 20260906080016 | 15 | 0.0 | 0.0 | 0.00 | 0.00 | 0.00 | 70 | 1015.0 | |
| 20260906074516 | 15 | 0.0 | 0.0 | 0.00 | 0.00 | 0.00 | 70 | 1015.2 | |
| 20260906073017 | 15 | 0.0 | 1.6 | 0.00 | 0.00 | 0.00 | 69 | 1015.3 | |
| 20260906071516 | 15 | 0.0 | 0.0 | 0.00 | 0.00 | 0.00 | 69 | 1015.4 | |
| 20260906070017 | 15 | 0.0 | 0.0 | 0.00 | 0.00 | 0.00 | 67 | 1015.5 | |
| 20260906064535 | 15 | 0.0 | 0.0 | 0.00 | 0.00 | 0.00 | 68 | 1015.6 | |
| 20260906063035 | 15 | 0.0 | 0.0 | 0.00 | 0.00 | 0.00 | 67 | 1015.6 | |
| 20260906061516 | 16 | 0.0 | 0.0 | 0.00 | 0.00 | 0.00 | 67 | 1015.6 | |
| 20260906060015 | 16 | 0.0 | 0.0 | 0.00 | 0.00 | 0.00 | 66 | 1015.6 | |
| 20260906054516 | 16 | 0.0 | 0.0 | 0.00 | 0.00 | 0.00 | 65 | 1015.6 | |
| 20260906053016 | 16 | 0.0 | 0.0 | 0.00 | 0.00 | 0.00 | 64 | 1015.6 | |
| 20260906051515 | 16 | 0.0 | 1.6 | 0.00 | 0.00 | 0.00 | 63 | 1015.7 | |
| 20260906050016 | 17 | 0.0 | 1.6 | 0.00 | 0.00 | 0.00 | 60 | 1015.5 | |
| 20260906044516 | 17 | 0.0 | 1.6 | 0.00 | 0.00 | 0.00 | 59 | 1015.5 | |
| 20260906043015 | 17 | 0.0 | 0.0 | 0.00 | 0.00 | 0.00 | 58 | 1015.3 | |
| 20260906041516 | 18 | 0.0 | 0.0 | 0.00 | 0.00 | 0.00 | 55 | 1015.3 | |
| 20260906040055 | 18 | 0.0 | 0.0 | 0.00 | 0.00 | 0.00 | 53 | 1015.3 | |
| 20260906034535 | 18 | 0.0 | 0.0 | 0.00 | 0.00 | 0.00 | 51 | 1015.2 | |
| 20260906033035 | 18 | 0.0 | 0.0 | 0.00 | 0.00 | 0.00 | 51 | 1014.6 | |
| 20260906031515 | 19 | 0.0 | 0.0 | 0.00 | 0.00 | 0.00 | 50 | 1014.7 | |
| 20260906030036 | 19 | 0.0 | 0.0 | 0.00 | 0.00 | 0.00 | 49 | 1014.4 | |
| 20260906024515 | 19 | 0.0 | 0.0 | 0.00 | 0.00 | 0.00 | 49 | 1014.4 | |
| 20260906023015 | 20 | 0.0 | 0.0 | 0.00 | 0.00 | 0.00 | 48 | 1014.3 | |
| 20260906021535 | 20 | 0.0 | 0.0 | 0.00 | 0.00 | 0.00 | 48 | 1014.4 | |
| 20260906020016 | 20 | 0.0 | 0.0 | 0.00 | 0.00 | 0.00 | 48 | 1014.4 | |
| 20260906014516 | 20 | 0.0 | 3.2 | 0.00 | 0.00 | 0.00 | 47 | 1014.5 | |
| 20260906013016 | 21 | 0.0 | 1.6 | 0.00 | 0.00 | 0.00 | 46 | 1014.4 | |
| 20260906011515 | 21 | 0.0 | 0.0 | 0.00 | 0.00 | 0.00 | 44 | 1014.6 | |
| 20260906010015 | 21 | 113 | 1.6 | 6.4 | 0.00 | 0.00 | 0.00 | 45 | 1014.6 |
| 20260906004535 | 21 | 113 | 1.6 | 8.0 | 0.00 | 0.00 | 0.00 | 44 | 1014.9 |
| 20260906003015 | 21 | 0.0 | 4.8 | 0.00 | 0.00 | 0.00 | 44 | 1014.9 | |
| 20260906001515 | 21 | 113 | 1.6 | 8.0 | 0.00 | 0.00 | 0.00 | 43 | 1015.0 |
| 20260906000015 | 22 | 135 | 1.6 | 9.7 | 0.00 | 0.00 | 0.00 | 43 | 1015.1 |
| 20260905234535 | 22 | 0.0 | 3.2 | 0.00 | 0.00 | 0.00 | 43 | 1015.0 | |
| 20260905233015 | 22 | 113 | 1.6 | 8.0 | 0.00 | 0.00 | 0.00 | 43 | 1015.1 |
| 20260905231537 | 22 | 113 | 3.2 | 8.0 | 0.00 | 0.00 | 0.00 | 42 | 1015.2 |
| 20260905230017 | 22 | 113 | 1.6 | 8.0 | 0.00 | 0.00 | 0.00 | 41 | 1015.4 |
| 20260905224516 | 22 | 113 | 1.6 | 8.0 | 0.00 | 0.00 | 0.00 | 41 | 1015.5 |
| 20260905223057 | 22 | 113 | 1.6 | 8.0 | 0.00 | 0.00 | 0.00 | 40 | 1015.4 |
| 20260905221517 | 22 | 113 | 1.6 | 6.4 | 0.00 | 0.00 | 0.00 | 39 | 1015.5 |
| 20260905220017 | 21 | 113 | 1.6 | 6.4 | 0.00 | 0.00 | 0.00 | 41 | 1015.7 |
| 20260905214517 | 21 | 0.0 | 4.8 | 0.00 | 0.00 | 0.00 | 42 | 1015.8 | |
| 20260905213017 | 21 | 113 | 1.6 | 8.0 | 0.00 | 0.00 | 0.00 | 44 | 1015.8 |
| 20260905211517 | 21 | 113 | 1.6 | 9.7 | 0.00 | 0.00 | 0.00 | 45 | 1015.7 |
| 20260905210017 | 20 | 0.0 | 4.8 | 0.00 | 0.00 | 0.00 | 46 | 1015.7 | |
| 20260905204517 | 20 | 135 | 1.6 | 8.0 | 0.00 | 0.00 | 0.00 | 51 | 1015.8 |
| 20260905203017 | 20 | 0.0 | 3.2 | 0.00 | 0.00 | 0.00 | 53 | 1015.7 | |
| 20260905201517 | 21 | 0.0 | 3.2 | 0.00 | 0.00 | 0.00 | 54 | 1015.9 | |
| 20260905200017 | 21 | 0.0 | 3.2 | 0.00 | 0.00 | 0.00 | 53 | 1015.8 | |
| 20260905194517 | 21 | 0.0 | 3.2 | 0.00 | 0.00 | 0.00 | 53 | 1015.8 | |
| 20260905193017 | 21 | 0.0 | 3.2 | 0.00 | 0.00 | 0.00 | 51 | 1015.8 | |
| 20260905191517 | 22 | 135 | 1.6 | 14.5 | 0.00 | 0.00 | 0.00 | 43 | 1015.7 |
| 20260905190017 | 22 | 135 | 1.6 | 9.7 | 0.00 | 0.00 | 0.00 | 43 | 1015.9 |
| 20260905184517 | 22 | 135 | 1.6 | 9.7 | 0.00 | 0.00 | 0.00 | 44 | 1016.0 |
| 20260905183037 | 22 | 180 | 1.6 | 9.7 | 0.00 | 0.00 | 0.00 | 45 | 1015.8 |
| 20260905181517 | 21 | 113 | 1.6 | 6.4 | 0.00 | 0.00 | 0.00 | 48 | 1015.9 |
| 20260905180017 | 22 | 113 | 1.6 | 9.7 | 0.00 | 0.00 | 0.00 | 47 | 1016.0 |
| 20260905174517 | 22 | 113 | 3.2 | 8.0 | 0.00 | 0.00 | 0.00 | 49 | 1016.0 |
| 20260905173017 | 22 | 113 | 1.6 | 8.0 | 0.00 | 0.00 | 0.00 | 49 | 1016.0 |
| 20260905171517 | 21 | 113 | 1.6 | 8.0 | 0.00 | 0.00 | 0.00 | 51 | 1015.9 |
| 20260905170017 | 21 | 113 | 1.6 | 4.8 | 0.00 | 0.03 | 0.00 | 52 | 1015.7 |
| 20260905164557 | 20 | 113 | 1.6 | 4.8 | 0.00 | 0.03 | 0.00 | 53 | 1015.6 |
| 20260905163017 | 19 | 90 | 1.6 | 4.8 | 0.00 | 0.03 | 0.00 | 57 | 1015.6 |
| 20260905161517 | 18 | 90 | 1.6 | 6.4 | 0.00 | 0.03 | 0.00 | 59 | 1015.6 |
| 20260905160017 | 18 | 0.0 | 6.4 | 0.00 | 0.03 | 0.00 | 63 | 1015.6 | |
| 20260905154517 | 17 | 68 | 1.6 | 6.4 | 0.00 | 0.03 | 0.00 | 61 | 1015.4 |
| 20260905153017 | 17 | 0.0 | 3.2 | 0.00 | 0.03 | 0.00 | 62 | 1015.7 | |
| 20260905151517 | 17 | 0.0 | 3.2 | 0.00 | 0.05 | 0.00 | 65 | 1015.6 | |
| 20260905150017 | 16 | 0.0 | 3.2 | 0.00 | 0.05 | 0.00 | 66 | 1015.5 | |
| 20260905144517 | 15 | 0.0 | 3.2 | 0.00 | 0.05 | 0.00 | 67 | 1015.2 | |
| 20260905143017 | 14 | 0.0 | 0.0 | 0.00 | 0.08 | 0.00 | 69 | 1015.2 | |
| 20260905141516 | 13 | 0.0 | 0.0 | 0.00 | 0.08 | 0.00 | 71 | 1015.1 | |
| 20260905140016 | 12 | 0.0 | 0.0 | 0.00 | 0.10 | 0.00 | 71 | 1014.8 | |
| 20260905134536 | 12 | 0.0 | 0.0 | 0.00 | 0.10 | 0.00 | 71 | 1014.8 | |
| 20260905133017 | 12 | 0.0 | 0.0 | 0.00 | 0.10 | 0.00 | 71 | 1014.7 | |
| 20260905131516 | 12 | 0.0 | 0.0 | 0.00 | 0.10 | 0.00 | 71 | 1014.7 | |
| 20260905130016 | 13 | 0.0 | 0.0 | 0.00 | 0.10 | 0.00 | 70 | 1014.7 | |
| 20260905124517 | 13 | 0.0 | 0.0 | 0.00 | 0.13 | 0.00 | 70 | 1014.8 | |
| 20260905123016 | 12 | 0.0 | 0.0 | 0.00 | 0.13 | 0.00 | 71 | 1014.7 | |
| 20260905121517 | 13 | 0.0 | 0.0 | 0.00 | 0.13 | 0.00 | 71 | 1014.7 | |
| 20260905120016 | 13 | 0.0 | 0.0 | 0.00 | 0.13 | 0.00 | 71 | 1014.9 | |
| 20260905114556 | 13 | 0.0 | 1.6 | 0.00 | 0.13 | 0.00 | 71 | 1014.8 | |
| 20260905113016 | 13 | 0.0 | 3.2 | 0.00 | 0.13 | 0.00 | 71 | 1014.8 | |
| 20260905111516 | 13 | 0.0 | 1.6 | 0.00 | 0.15 | 0.00 | 71 | 1015.1 | |
| 20260905110016 | 13 | 0.0 | 1.6 | 0.00 | 0.18 | 0.00 | 71 | 1015.1 | |
| 20260905104517 | 13 | 0.0 | 1.6 | 0.00 | 0.20 | 0.00 | 73 | 1015.1 | |
| 20260905103017 | 13 | 0.0 | 1.6 | 0.00 | 0.20 | 0.00 | 74 | 1015.1 | |
| 20260905101517 | 12 | 0.0 | 3.2 | 0.00 | 0.25 | 0.00 | 76 | 1015.2 | |
| 20260905100016 | 12 | 0.0 | 0.0 | 0.00 | 0.28 | 0.00 | 77 | 1015.1 | |
| 20260905094516 | 12 | 0.0 | 1.6 | 0.00 | 0.36 | 0.00 | 79 | 1015.2 | |
| 20260905093016 | 12 | 0.0 | 1.6 | 0.00 | 0.43 | 0.00 | 80 | 1015.2 | |
| 20260905091517 | 12 | 0.0 | 0.0 | 0.00 | 0.51 | 0.00 | 80 | 1015.2 | |
| 20260905090016 | 12 | 0.0 | 3.2 | 0.00 | 0.64 | 0.00 | 82 | 1015.2 |